Regional Weather Roundup
Issued by NWS

Home | Current Version | Previous Version | Text Only | Print | Product List | Glossary Off
Versions: 1 2 3 4 5 6 7 8 9 10 11 12 13 14 15 16 17 18 19 20 21 22 23 24 25 26 27 28 29 30 31 32 33 34 35 36 37 38 39 40 41 42 43 44 45 46 47 48 49 50

000
ASUS43 KTOP 300159
RWRKS

WEATHER ROUNDUP FOR KANSAS
NATIONAL WEATHER SERVICE GOODLAND KS
900 PM CDT FRI APR 29 2016

NOTE:  "FAIR" INDICATES FEW OR NO CLOUDS BELOW 12,000 FEET WITH NO
SIGNIFICANT WEATHER AND/OR OBSTRUCTIONS TO VISIBILITY.

KSZ001>006-013>018-027>032-041>047-300300-
NORTHWEST KANSAS

CITY           SKY/WX    TMP DP  RH WIND       PRES   REMARKS
GOODLAND       CLOUDY    32  32 100 N12       29.84S WCI  23
HAYS           CLOUDY    46  37  71 W6        29.82S
HILL CITY      LGT RAIN  43  41  93 NW8       29.86S FOG
RUSSELL        LGT RAIN  47  46  97 NE6       29.77R FOG
$$

KSZ061>065-074>080-084>089-300300-
SOUTHWEST KANSAS

CITY           SKY/WX    TMP DP  RH WIND       PRES   REMARKS
DODGE CITY     CLOUDY    44  42  93 N12       29.80R
ELKHART          N/A     41  35  79 N9          N/A
GARDEN CITY    CLOUDY    38  37  97 N18       29.80S WCI  28
GREAT BEND     CLOUDY    46  41  81 W9        29.79R
LIBERAL        CLOUDY    43  37  81 N13       29.81S
$$

KSZ066>073-081>083-090>101-300300-
SOUTHEAST KANSAS

CITY           SKY/WX    TMP DP  RH WIND       PRES   REMARKS
CHANUTE        CLOUDY    58  53  84 E21G26    29.71R
COFFEYVILLE    LGT RAIN  61  58  90 NW13G26   29.65F
HUTCHINSON     CLOUDY    52  50  93 E14G21    29.73R
MEDICINE LODGE   N/A     50  50 100 N5        29.73R
NEWTON         CLOUDY    52  46  82 E12G22    29.73R
PARSONS        CLOUDY    59  57  93 N9        29.69R
WICHITA INTL   CLOUDY    56  52  86 E13G24    29.70R
WICHITA JABRA  CLOUDY    54  53  97 E13       29.70R
WINFIELD       CLOUDY    58  55  90 E13G24    29.65F
$$

KSZ007>012-019>026-033>040-048>060-102>105-300300-
NORTHEAST KANSAS

CITY           SKY/WX    TMP DP  RH WIND       PRES   REMARKS
CONCORDIA      CLOUDY    49  45  86 E17G25    29.77F
EMPORIA        CLOUDY    53  51  93 NE16      29.75R
LAWRENCE       CLOUDY    53  50  89 E13G24    29.80R
MANHATTAN      CLOUDY    52  47  83 E22G36    29.76F
OLATHE IND     CLOUDY    54  51  90 E18G31    29.78R
OLATHE EXE     CLOUDY    52  51  97 E17G28    29.78F
SALINA         LGT RAIN  52  49  89 E13G24    29.74R
TOPEKA BILLARD CLOUDY    53  49  86 E20G28    29.80R
TOPEKA FORBES  CLOUDY    54  50  86 E16G25    29.78R
$$



USA.gov is the U.S. government's official web portal to all federal, state and local government web resources and services.